Weather in Turetskoye

Russia / Udmurt Republic     58°00′19″N   53°15′12″E
temp.,
°C
wind,
m/s
gust,
m/s
humid.,
%
clouds,
%
prec.,
mm/h
press.,
hPa
HPBL,
m
19 april, mon
mon1901:00−2ene39740 0.0 1033288
04:00−3ene38771 0.0 1035258
07:00−2ene39570 0.0 1035490
10:00+2e57350 0.0 10351445
13:00+4e46330 0.0 10351619
16:00+5e45340 0.0 10341628
19:00+2ene23560 0.0 103442
22:00−2e22670 0.0 103528
20 april, tue
tue2001:00−2e22660 0.0 103621
04:00−3ene11630 0.0 103712
07:000ene12515 0.0 1036133
10:00+5e11355 0.0 1036914
13:00+8w00322 0.0 10351240
16:00+8nw11324 0.0 10331208
19:00+5n11490 0.0 103210
22:00+2ese11560 0.0 103310
21 april, wed
wed2101:000ese11630 0.0 103210
04:000se11650 0.0 103211
07:00+3se24565 0.0 1032144
10:00+8se4637100 0.0 1031918
13:00+10se5734100 0.0 10291148
16:00+11sse4837100 0.0 10271327
19:00+8sse41147100 0.0 1027427
22:00+7sse41453100 0.0 1027657
22 april, thu
thu2201:00+6sse41355100 0.0 1026626
04:00+5s41261100 0.0 1026849
07:00+4s51177100 0.0 1026815
10:00+4sse41093100 0.1 1027808
13:00+4s41196100 0.7 1028881
16:00+4s41096100 1.8 1028903
19:00+4s4996100 0.1 1028899
22:00+4s3990100 0.1 1028675
23 april, fri
fri2301:00+3s3997100 0.0 1028543
04:00+3s3798100 0.1 1029412
07:00+4s3796100 0.0 1029356
10:00+5s3591100 0.0 1030458
13:00+7s2483100 0.0 1030611
16:00+8sse347795 0.1 1029775
19:00+6se3688100 0.0 1030466
22:00+4se269580 0.0 1029245